www.pogodaiklimat.ru

Погода и климат >> Архив погоды >> Мексика >> Aguascalientes


ПОГОДА в Aguascalientes

  • Прогноз погоды в Aguascalientes
  • Монитор погоды в Aguascalientes
  • Климат города

АРХИВ ПОГОДЫ в Aguascalientes

Время (UTC), дата Ветер
(напр.,м/с)
 
Видим.   Явления Облачность Т
(С)
Тd
(С)
f
(%)
Тe
(С)
Тes
(С)
Комфортность P
(гПа)
Po
(гПа)
Тmin
(С)
Tmax
(С)
R
(мм)
R24
(мм)
S
(см)
00 14.09 штиль 0 20 км 8/8 1000 м
[Sc diur, vesp]
+22.4 +14.0 59 +26 +26 жарко 1005.9 813.4 +16.4 +27.0
03 14.09 штиль 0 10 км 9/9 1200 м
[Sc diur, vesp]
+20.0 +13.5 66 +22 +22 комфорт 1007.1 815.1
12 14.09 штиль 0 10 км слабая морось 10/10 1000 м
[Sc]
+16.8 +13.7 82 +17 +17 1010.9 815.7 0.2
15 14.09 штиль 0 25 км ясно +20.0 +12.8 63 +22 +29 комфорт 1012.1 816.3
18 14.09 СВ 6 25 км 9/9 1200 м
[Cu hum]
+24.6 +9.8 39 +25 +26 комфорт 1010.0 815.5 +16.4 +25.6
21 14.09 З 4 25 км 9/9 1200 м
[Cu hum]
+26.6 +9.5 34 +27 +28 жарко 1006.1 813.6
12 15.09 штиль 0 10 км дымка 10/10 1000 м
[Sc]
+15.8 +14.1 90 +16 +16 1012.0 816.6 +15.2 +27.8
15 15.09 штиль 0 15 км мгла 10/4 1200 м
[Cb calv Ac trans]
+19.4 +13.7 70 +21 +23 комфорт 1014.5 817.7
18 15.09 З 2 20 км 5/5 1200 м
[Cu med, cong]
+24.6 +10.7 42 +26 +35 жарко 1012.3 816.7 +15.4 +25.0
21 15.09 Ю 2 20 км 8/8 1200 м
[Sc diur, vesp]
+27.6 +8.5 30 +27 +30 жарко 1007.4 814.2
15 16.09 штиль 0 15 км мгла 8/4 1200 м
[Sc Ac As]
+17.0 +14.1 83 +17 +19 1014.5 817.1
00 17.09 Ю 3 15 км 8/8 1000 м
[Sc diur, vesp]
+24.6 +10.7 42 +26 +26 жарко 1007.6 814.4 +15.2 +26.0
03 17.09 штиль 0 10 км 9/9 1200 м
[Sc diur, vesp]
+20.6 +12.4 59 +22 +22 комфорт 1008.6 816.4
12 17.09 ЮЗ 4 10 км в посл. час морось 9/5 1000 м
[Sc Ac As]
+16.6 +14.9 90 +16 +16 1012.6 816.8 0.4
15 17.09 ЮЗ 2 15 км мгла 10/6 1200 м
[Sc Ac As]
+17.6 +14.0 79 +18 +19 1015.1 818.1
00 18.09 В 3 20 км 8/8 1000 м
[Sc diur, vesp]
+23.8 +10.7 44 +25 +25 комфорт 1008.9 814.9 +15.0 +26.8
15 18.09 штиль 0 15 км мгла 5/5 1200 м
[Cu hum]
+18.8 +13.3 70 +20 +23 1016.0 818.5
18 18.09 штиль 0 15 км мгла 10/6 1200 м
[Cu hum Ac trans]
+23.0 +10.7 46 +25 +29 комфорт 1014.3 818.0 +14.8 +23.2
12 19.09 штиль 0 10 км дымка 10/10 1000 м
[Sc]
+15.6 +14.3 92 +15 +15 1013.2 816.7 +15.4 +26.0
15 19.09 штиль 0 15 км мгла 6/6 1200 м
[Cu med, cong]
+18.6 +13.1 70 +19 +22 1015.2 817.9
18 19.09 Ю 2 15 км мгла 6/6 1200 м
[Cu med, cong]
+23.0 +10.0 44 +25 +32 комфорт 1014.7 817.7 +15.2 +24.0
21 19.09 Ю 6 15 км мгла 6/6 1200 м
[Cu med, cong]
+26.8 +10.0 35 +27 +29 жарко 1008.8 814.8
00 20.09 Ю 2 15 км слабая морось 10/10 1000 м
[Sc diur, vesp]
+20.8 +11.1 54 +23 +23 комфорт 1008.9 815.6 0.0
03 20.09 штиль 0 10 км слабая морось 10/10 1200 м
[Sc diur, vesp]
+16.6 +14.7 89 +16 +16 1011.1 817.7 0.8
12 20.09 штиль 0 10 км 5/5 1200 м
[Cu hum]
+15.0 +13.0 88 +15 +15 1014.5 817.3 +14.8
15 20.09 штиль 0 20 км мгла 9/3 1200 м
[Cu hum Ci sp]
+18.8 +12.4 66 +20 +24 1016.5 818.8
18 20.09 С 2 20 км мгла 9/3 1200 м
[Cu hum Ci sp]
+24.8 +9.4 38 +26 +36 жарко 1014.4 818.1 +14.4 +25.2

 

Местоположение метеостанции Aguascalientes (Мексика): широта 21.87 долгота -102.30 высота над уровнем моря 1874 м.

В архиве по умолчанию представлена погода в Aguascalientes за последнюю неделю. Архивные данные за месяц целиком и за предыдущие месяцы, начиная с января 2011 года, Вы можете получить, выбрав интересующий диапазон дат из раскрывающегося списка и нажав кнопку "Ввод!".


*Определитесь, кто Вы:
робот инопланетянин человек

Внимание! Время в таблицах - всемирное. Для получения местного времени необходимо прибавить поправку, которая в Aguascalientes равна -6 ч.

Смотрите также архив погоды в соседних городах и на ближайших метеорологических станциях:

Погода в Lagos De Moreno (Мексика) (70 км)
Погода в Colotlan (Мексика) (103 км)
Погода в Zacatecas (Мексика) (103 км)
Погода в Huejucar (Мексика) (124 км)
Погода в San Luis Potosi (Мексика) (148 км)
Погода в Guanajuato (Мексика) (149 км)
Погода в Guadalajara (Мексика) (169 км)
Погода в Zamora (Мексика) (210 км)
Погода в Sombrerete (Мексика) (237 км)
Погода в Rio Verde (Мексика) (240 км)

Пояснения к столбцам:

Ветер - указаны скорость ветра в м/с - средняя за 10 мин, порывы в срок и между сроками (в фигурных скобках) и направление, откуда дует ветер: С - северный, СВ - северо-восточный, В - восточный, ЮВ - юго-восточный, Ю - южный, ЮЗ - юго-западный, З - западный, СЗ - северо-западный.
Видимость - горизонтальная дальность видимости в метрах или километрах. При видимости от 1 до 10 км при отсутствии осадков обычно наблюдается дымка, при ухудшении видимости до 1 км и менее - туман. В сухую погоду видимость может ухудшаться дымом, пылью или мглою.
Явления - указаны атмосферные явления, наблюдавшиеся в срок или в последний час перед сроком; фигурными скобками обозначены явления, наблюдавшиеся между сроками (за 1-3 часа до срока); квадратными скобками обозначены град или гололедные отложения с указанием их диаметра в мм.
Облачность - указаны через наклонную черту общая и нижняя облачность в баллах и высота нижней границы облаков в метрах; квадратными скобками обозначены формы облаков: Ci - перистые, Cs - перисто-слоистые, Cc - перисто-кучевые, Ac - высококучевые, As - высокослоистые, Sc - слоисто-кучевые, Ns - слоисто-дождевые, Cu - кучевые, Cb - кучево-дождевые. Подробнее классификацию облаков см. в Атласе облаков (PDF).
T - Температура воздуха - температура, измеренная на высоте 2 м над землей.
Td - Температура точки росы - температура, при понижении до которой содержащийся в воздухе водяной пар достигнет насыщения.
f - Относительная влажность воздуха - влажноcть воздуха, измеренная на высоте 2 м над землей.
Te - Эффективная температура - температура, которую ощущает одетый по сезону человек в тени. Характеристика душности погоды. При расчете учитывается влияние влажности воздуха и скорости ветра на теплоощущения человека.
Tes - Эффективная температура на солнце - температура, которую ощущает человек, с поправкой на солнечный нагрев. Характеристика знойности погоды. Зависит от высоты солнца над горизонтом, облачности и скорости ветра. Ночью, в пасмурную погоду, а также при ветре 12 м/с и более поправка равна нулю.
P - Атмосферное давление - приведенное к уровню моря атмосферное давление.
Po - Атмосферное давление - измеренное на уровне метеостанции атмосферное давление.
Tmin - Минимальная температура - минимум температуры воздуха на высоте 2 м над землей.
Tmax - Максимальная температура - максимум температуры воздуха на высоте 2 м над землей.
R - Количество осадков - Количество выпавших осадков за период времени, мм. При наведении курсора мыши на число - период времени, за который выпало указанное количество осадков.
R24 - Количество осадков - Количество выпавших осадков за 24 часа, мм.
S - Снежный покров - Высота снежного покрова, см. При наведении курсора мыши на число - состояние снежного покрова и степень покрытия местности в баллах.